TimeEEST,TemperatureF,Dew PointF,Humidity,Sea Level PressureIn,VisibilityMPH,Wind Direction,Wind SpeedMPH,Gust SpeedMPH,PrecipitationIn,Events,Conditions,WindDirDegrees,DateUTC
12:20 AM,62.6,30.2,30,30.06,-9999.0,NNE,4.6,-,N/A,,Clear,20,2012-10-01 21:20:00
12:50 AM,60.8,33.8,36,30.06,-9999.0,NNE,5.8,-,N/A,,Clear,20,2012-10-01 21:50:00
1:20 AM,60.8,35.6,39,30.09,-9999.0,NNE,9.2,-,N/A,,Clear,30,2012-10-01 22:20:00
1:50 AM,60.8,33.8,36,30.09,-9999.0,NE,6.9,-,N/A,,Clear,40,2012-10-01 22:50:00
2:20 AM,64.4,32.0,30,30.06,-9999.0,NE,6.9,-,N/A,,Clear,40,2012-10-01 23:20:00
2:50 AM,60.8,39.2,45,30.09,-9999.0,Variable,1.2,-,N/A,,Clear,0,2012-10-01 23:50:00
3:20 AM,60.8,32.0,34,30.06,-9999.0,ENE,3.5,-,N/A,,Clear,60,2012-10-02 00:20:00
3:50 AM,59.0,41.0,51,30.09,-9999.0,Calm,Calm,-,N/A,,Clear,0,2012-10-02 00:50:00
4:20 AM,57.2,37.4,48,30.09,-9999.0,ENE,2.3,-,N/A,,Clear,70,2012-10-02 01:20:00
4:50 AM,60.8,35.6,39,30.09,-9999.0,NNE,5.8,-,N/A,,Clear,20,2012-10-02 01:50:00
5:20 AM,59.0,37.4,45,30.09,-9999.0,Variable,1.2,-,N/A,,Clear,0,2012-10-02 02:20:00
5:50 AM,59.0,39.2,48,30.09,-9999.0,Calm,Calm,-,N/A,,Clear,0,2012-10-02 02:50:00
6:20 AM,59.0,35.6,42,30.09,-9999.0,Calm,Calm,-,N/A,,Clear,0,2012-10-02 03:20:00
6:50 AM,59.0,41.0,51,30.09,-9999.0,West,2.3,-,N/A,,Clear,260,2012-10-02 03:50:00
7:20 AM,60.8,41.0,48,30.12,-9999.0,Calm,Calm,-,N/A,,Clear,0,2012-10-02 04:20:00
7:50 AM,64.4,35.6,34,30.12,-9999.0,Calm,Calm,-,N/A,,Clear,0,2012-10-02 04:50:00
8:20 AM,66.2,33.8,30,30.12,-9999.0,Calm,Calm,-,N/A,,Clear,0,2012-10-02 05:20:00
8:50 AM,69.8,35.6,28,30.12,-9999.0,Calm,Calm,-,N/A,,Clear,0,2012-10-02 05:50:00
9:20 AM,75.2,35.6,24,30.12,-9999.0,Calm,Calm,-,N/A,,Clear,0,2012-10-02 06:20:00
9:50 AM,78.8,32.0,18,30.12,-9999.0,Calm,Calm,-,N/A,,Clear,0,2012-10-02 06:50:00
10:20 AM,84.2,30.2,14,30.12,-9999.0,Calm,Calm,-,N/A,,Clear,0,2012-10-02 07:20:00
10:50 AM,84.2,32.0,15,30.12,-9999.0,WSW,4.6,-,N/A,,Clear,240,2012-10-02 07:50:00
11:20 AM,87.8,32.0,14,30.09,-9999.0,SW,4.6,-,N/A,,Clear,230,2012-10-02 08:20:00
11:50 AM,91.4,32.0,12,30.09,6.2,SW,3.5,-,N/A,,Partly Cloudy,230,2012-10-02 08:50:00
12:20 PM,93.2,30.2,11,30.06,6.2,Variable,2.3,-,N/A,,Partly Cloudy,0,2012-10-02 09:20:00
12:50 PM,95.0,30.2,10,30.06,-9999.0,Variable,2.3,-,N/A,,Clear,0,2012-10-02 09:50:00
1:20 PM,96.8,32.0,10,30.04,-9999.0,WSW,3.5,-,N/A,,Clear,240,2012-10-02 10:20:00
1:50 PM,96.8,32.0,10,30.04,-9999.0,Variable,2.3,-,N/A,,Clear,0,2012-10-02 10:50:00
2:20 PM,96.8,32.0,10,30.04,-9999.0,West,4.6,-,N/A,,Clear,260,2012-10-02 11:20:00
2:50 PM,98.6,35.6,11,30.01,-9999.0,Variable,1.2,-,N/A,,Clear,0,2012-10-02 11:50:00
3:20 PM,96.8,33.8,11,30.01,-9999.0,SW,4.6,-,N/A,,Clear,230,2012-10-02 12:20:00
3:50 PM,95.0,35.6,12,30.01,-9999.0,SW,5.8,-,N/A,,Clear,230,2012-10-02 12:50:00
4:20 PM,95.0,37.4,13,30.01,-9999.0,SW,4.6,-,N/A,,Clear,230,2012-10-02 13:20:00
4:50 PM,91.4,37.4,15,30.01,-9999.0,West,4.6,-,N/A,,Clear,260,2012-10-02 13:50:00
5:20 PM,91.4,35.6,14,30.01,-9999.0,WSW,3.5,-,N/A,,Clear,250,2012-10-02 14:20:00
5:50 PM,87.8,39.2,18,30.01,6.2,West,4.6,-,N/A,,Smoke,260,2012-10-02 14:50:00
6:20 PM,86.0,41.0,20,30.01,6.2,South,6.9,-,N/A,,Mostly Cloudy,190,2012-10-02 15:20:00
6:50 PM,84.2,41.0,22,30.04,6.2,SSW,3.5,-,N/A,,Mostly Cloudy,210,2012-10-02 15:50:00
7:20 PM,82.4,41.0,23,30.04,6.2,South,4.6,-,N/A,,Mostly Cloudy,180,2012-10-02 16:20:00
7:50 PM,82.4,41.0,23,30.04,6.2,South,4.6,-,N/A,,Mostly Cloudy,180,2012-10-02 16:50:00
8:20 PM,80.6,41.0,24,30.04,6.2,Calm,Calm,-,N/A,,Mostly Cloudy,0,2012-10-02 17:20:00
8:50 PM,82.4,42.8,25,30.04,-9999.0,South,3.5,-,N/A,,Clear,170,2012-10-02 17:50:00
9:20 PM,78.8,42.8,28,30.04,-9999.0,Calm,Calm,-,N/A,,Clear,0,2012-10-02 18:20:00
9:50 PM,77.0,42.8,29,30.04,-9999.0,Variable,1.2,-,N/A,,Clear,0,2012-10-02 18:50:00
10:20 PM,73.4,41.0,31,30.04,-9999.0,North,3.5,-,N/A,,Clear,10,2012-10-02 19:20:00
10:50 PM,73.4,41.0,31,30.04,-9999.0,NNE,1.2,-,N/A,,Clear,20,2012-10-02 19:50:00
11:20 PM,73.4,41.0,31,30.04,-9999.0,Calm,Calm,-,N/A,,Clear,0,2012-10-02 20:20:00
11:50 PM,69.8,41.0,35,30.04,-9999.0,NNE,4.6,-,N/A,,Clear,30,2012-10-02 20:50:00